Murren, Switzerland 16 day weather forecast

Slopes altitude range 945 m - 2970m

Number of lifts: 44 Pistes: 213km

In some cases the lift and piste totals shown are for the ski domain (e.g. Three Valleys) rather than individual resort (e.g. Courchevel)

Overview

The 16 day weather forecast is fully updated 4 times every day.

    • Sat 18 AUG 2018
    • Sat 18
    • 6C 10C
    • Sun 19 AUG 2018
    • Sun 19
    • 7C 12C
    • Mon 20 AUG 2018
    • Mon 20
    • 7C 10C
    • Tue 21 AUG 2018
    • Tue 21
    • 8C 12C
    • Wed 22 AUG 2018
    • Wed 22
    • 8C 11C
    • Thu 23 AUG 2018
    • Thu 23
    • 8C 12C
    • Fri 24 AUG 2018
    • Fri 24
    • 7C 10C
    • Sat 25 AUG 2018
    • Sat 25
    • 3C 7C
    • Sun 26 AUG 2018
    • Sun 26
    • 10C 18C
    • Mon 27 AUG 2018
    • Mon 27
    • 10C 20C
    • Tue 28 AUG 2018
    • Tue 28
    • 13C 25C
    • Wed 29 AUG 2018
    • Wed 29
    • 15C 28C
    • Thu 30 AUG 2018
    • Thu 30
    • 17C 25C
    • Fri 31 AUG 2018
    • Fri 31
    • 16C 24C
    • Sat 01 SEP 2018
    • Sat 01
    • 14C 25C
    • Sun 02 SEP 2018
    • Sun 02
    • 13C 20C

Date:

Time Type 0°C level Temp Chill Snow Cloud Speed Gust Dir Press
12:00 3952m 10°C 10_2 0cm 96% 2mph 3mph 1020mB
15:00 4049m 10°C 10_3 0cm 97% 3mph 3mph 1020mB
18:00 4051m 10°C 10_2 0cm 98% 2mph 3mph 1021mB
21:00 4142m 6°C 6_2 0cm 99% 2mph 2mph 1023mB
0:00 4166m 5°C 5_3 0cm 98% 3mph 4mph 1023mB
3:00 4167m 4°C 4_3 0cm 98% 3mph 5mph 1022mB
6:00 4117m 3°C 3_3 0cm 95% 3mph 4mph 1023mB
9:00 4120m 7°C 7_1 0cm 88% 1mph 2mph 1022mB
12:00 4061m 12°C 12_2 0cm 89% 2mph 3mph 1021mB
15:00 4132m 12°C 12_3 0cm 93% 3mph 4mph 1020mB
18:00 4125m 12°C 12_3 0cm 97% 3mph 3mph 1021mB
21:00 4202m 7°C 7_2 0cm 100% 2mph 2mph 1022mB
0:00 4139m 5°C 5_1 0cm 100% 1mph 2mph 1022mB
3:00 4134m 4°C 4_2 0cm 98% 2mph 2mph 1022mB
6:00 4154m 4°C 4_2 0cm 98% 2mph 2mph 1022mB
9:00 4166m 7°C 7_4 0cm 100% 4mph 4mph 1021mB
12:00 4166m 10°C 10_6 0cm 100% 6mph 6mph 1019mB
15:00 4275m 10°C 10_7 0cm 100% 7mph 8mph 1019mB
18:00 4298m 10°C 10_5 0cm 100% 5mph 6mph 1020mB
21:00 4368m 7°C 7_2 0cm 100% 2mph 3mph 1021mB
0:00 4360m 4°C 4_2 0cm 99% 2mph 3mph 1021mB
3:00 4328m 3°C 3_2 0cm 63% 2mph 3mph 1021mB
6:00 4341m 3°C 3_3 0cm 39% 3mph 3mph 1021mB
9:00 4308m 8°C 8_1 0cm 88% 1mph 2mph 1020mB
12:00 4192m 12°C 12_1 0cm 94% 1mph 2mph 1019mB
15:00 4350m 12°C 12_3 0cm 99% 3mph 3mph 1019mB
18:00 4335m 12°C 12_1 0cm 100% 1mph 2mph 1019mB
21:00 4310m 8°C 8_5 0cm 100% 5mph 6mph 1021mB
0:00 4266m 8°C 8_6 0cm 100% 6mph 7mph 1021mB
3:00 4174m 7°C 7_5 0cm 100% 5mph 6mph 1021mB
6:00 4127m 7°C 7_5 0cm 100% 5mph 6mph 1021mB
9:00 4155m 8°C 8_4 0cm 100% 4mph 4mph 1020mB
12:00 4176m 11°C 11_2 0cm 100% 2mph 4mph 1018mB
15:00 4223m 11°C 11_2 0cm 100% 2mph 3mph 1018mB
18:00 4229m 11°C 11_1 0cm 100% 1mph 1mph 1019mB
21:00 4194m 7°C 7_4 0cm 100% 4mph 5mph 1019mB
0:00 4160m 7°C 7_4 0cm 100% 4mph 5mph 1019mB
3:00 4091m 7°C 7_3 0cm 100% 3mph 4mph 1018mB
6:00 4094m 6°C 6_3 0cm 100% 3mph 3mph 1018mB
9:00 4106m 8°C 8_3 0cm 99% 3mph 3mph 1017mB
12:00 4075m 12°C 12_3 0cm 100% 3mph 4mph 1015mB
15:00 4082m 12°C 12_4 0cm 100% 4mph 5mph 1014mB
18:00 4018m 12°C 12_3 0cm 100% 3mph 4mph 1015mB
21:00 4001m 7°C 7_4 0cm 100% 4mph 5mph 1015mB
0:00 4048m 6°C 6_4 0cm 100% 4mph 5mph 1015mB
3:00 3945m 6°C 6_4 0cm 100% 4mph 5mph 1015mB
6:00 3875m 5°C 5_4 0cm 100% 4mph 5mph 1015mB
9:00 3821m 7°C 7_6 0cm 100% 6mph 6mph 1015mB
12:00 3900m 10°C 10_6 0cm 93% 6mph 6mph 1015mB
15:00 3863m 9°C 9_7 0cm 96% 7mph 7mph 1014mB
18:00 3752m 9°C 9_7 0cm 98% 7mph 7mph 1016mB
21:00 3550m 5°C 5_6 0cm 100% 6mph 6mph 1017mB
0:00 3373m 3°C 3_5 0cm 100% 5mph 6mph 1017mB
3:00 3188m 3°C 3_5 0cm 100% 5mph 5mph 1016mB
6:00 3058m 2°C 2_5 0cm 100% 5mph 5mph 1016mB
9:00 3081m 3°C 3_6 0cm 98% 6mph 6mph 1015mB
12:00 3305m 7°C 7_7 0cm 96% 7mph 7mph 1014mB
15:00 3412m 8°C 8_8 0cm 99% 8mph 8mph 1012mB
18:00 3186m 8°C 8_6 0cm 99% 6mph 7mph 1014mB
21:00 2854m 9°C 9_4 0cm 72% 4mph 4mph 1017mB
0:00 3076m 9°C 9_3 0cm 85% 3mph 4mph 1017mB
3:00 2980m 8°C 8_3 0cm 99% 3mph 3mph 1016mB
6:00 2946m 7°C 7_2 0cm 99% 2mph 3mph 1017mB
9:00 2881m 10°C 10_3 0cm 1% 3mph 3mph 1016mB
12:00 2731m 18°C 18_4 0cm 9% 4mph 5mph 1016mB
15:00 2830m 18°C 18_4 0cm 81% 4mph 4mph 1015mB
18:00 3057m 18°C 18_1 0cm 44% 1mph 2mph 1017mB
21:00 3178m 9°C 9_4 0cm 0% 4mph 5mph 1019mB
0:00 3272m 8°C 8_4 0cm 0% 4mph 5mph 1019mB
3:00 3215m 7°C 7_3 0cm 0% 3mph 4mph 1019mB
6:00 3303m 7°C 7_3 0cm 0% 3mph 4mph 1020mB
9:00 3313m 10°C 10_3 0cm 0% 3mph 2mph 1019mB
12:00 3445m 20°C 20_4 0cm 0% 4mph 2mph 1018mB
15:00 3615m 21°C 21_4 0cm 0% 4mph 4mph 1018mB
18:00 3873m 21°C 21_2 0cm 0% 2mph 2mph 1019mB
21:00 4127m 11°C 11_4 0cm 0% 4mph 5mph 1021mB
0:00 4128m 10°C 10_4 0cm 0% 4mph 5mph 1021mB
3:00 4123m 9°C 9_3 0cm 0% 3mph 4mph 1021mB
6:00 4236m 9°C 9_2 0cm 0% 2mph 3mph 1021mB
Afternoon 0mm 0 4422m 25°C 25_4 0cm 4% 4mph 5mph 1020mB
Morning 0mm 0 4412m 14°C 14_5 0cm 0% 5mph 6mph 1022mB
Afternoon 0mm 0 4362m 28°C 28_3 0cm 2% 3mph 4mph 1020mB
Morning 0mm 0 4263m 16°C 16_5 0cm 63% 5mph 5mph 1021mB
Afternoon 0mm 0 4038m 25°C 25_0 0cm 95% 0mph 1mph 1019mB
Morning 0mm 0 3879m 14°C 14_5 0cm 41% 5mph 7mph 1021mB
Afternoon 0mm 0 3961m 24°C 24_2 0cm 47% 2mph 3mph 1019mB
Morning 0mm 0 3898m 12°C 12_5 0cm 15% 5mph 5mph 1018mB
Afternoon 0mm 0 3842m 25°C 25_3 0cm 15% 3mph 4mph 1012mB
Morning 0.078125mm 0 3552m 14°C 14_4 0cm 65% 4mph 7mph 1008mB
Afternoon 0.489583mm 0.9375 3381m 20°C 20_2 0cm 85% 2mph 2mph 1004mB
Morning 0.322917mm 0.5 2636m 8°C 8_3 0cm 70% 3mph 8mph 1008mB

16 day outlook at a glance

Forecast issued: 18/08/2018 18:53:27

Chat

Your comments and questions. In a resort? Let us know what it's like!


Characters left 250

For terms and conditions see Readers Comments on the Cookie and privacy policy page.